Cortez, CO

12:18 AM MDT on April 26, 2018 (GMT -0600)
Cortez Municipal

Weather History for KCEZ - April, 2014

Change the Weather History Date:

Monday, April 7, 2014

  Actual Average Record
Temperature  
Mean Temperature 43 °F 45 °F  
Max Temperature 62 °F 62 °F 79 °F (2018)
Min Temperature 23 °F 28 °F 15 °F (2012)
Degree Days  
Heating Degree Days 22 20  
Month to date heating degree days 164 148  
Since 1 July heating degree days 5498 5678  
Cooling Degree Days 0 0  
Month to date cooling degree days 0 0  
Year to date cooling degree days 0 0  
Moisture  
Dew Point 21 °F    
Average Humidity 53    
Maximum Humidity 88    
Minimum Humidity 17    
Precipitation  
Precipitation 0.00 in 0.04 in 0.36 in (2018)
Month to date precipitation 0.29 0.25  
Year to date precipitation 1.36 3.33  
Sea Level Pressure  
Sea Level Pressure 30.14 in    
Wind  
Wind Speed 10 mph (North)    
Max Wind Speed 25 mph    
Max Gust Speed 39 mph    
Visibility 10 miles    
Events      
T = Trace of Precipitation, MM = Missing Value Source: NWS Daily Summary

Daily Weather History Graph

Daily Weather History Graph

Search for Another Location

Airport or City:

Astronomy

Apr. 07, 2014 Rise Set
Actual Time 6:51 AM MDT 7:42 PM MDT
Civil Twilight 6:24 AM MDT 8:09 PM MDT
Nautical Twilight 5:53 AM MDT 8:40 PM MDT
Astronomical Twilight 5:21 AM MDT 9:13 PM MDT
Moon 12:53 PM MDT (4/7) 2:18 AM MDT (4/7)
Length of Visible Light 13h 44m
Length of Day
12h 51m
First Quarter, 54% of the Moon is Illuminated
Apr 7
First Quarter
Apr 15
Full
Apr 22
Last Quarter
Apr 29
New
May 6
First Quarter

Hourly Weather History & Observations

Time (MDT) Temp. Windchill Dew Point Humidity Pressure Visibility Wind Dir Wind Speed Gust Speed Precip Events Conditions
12:53 AM 34.0 °F - 28.0 °F 79% 30.04 in 10.0 mi Calm Calm - N/A   Clear
1:53 AM 30.9 °F 24.3 °F 26.1 °F 82% 30.06 in 10.0 mi ENE 6.9 mph - N/A   Clear
2:53 AM 28.9 °F 22.8 °F 25.0 °F 85% 30.06 in 10.0 mi NE 5.8 mph - N/A   Clear
3:53 AM 28.0 °F 19.3 °F 25.0 °F 88% 30.07 in 10.0 mi ENE 9.2 mph - N/A   Clear
4:53 AM 26.1 °F - 23.0 °F 88% 30.10 in 10.0 mi Calm Calm - N/A   Clear
5:53 AM 24.1 °F - 21.0 °F 88% 30.13 in 10.0 mi Calm Calm - N/A   Clear
6:53 AM 23.0 °F 14.7 °F 19.9 °F 88% 30.17 in 10.0 mi West 6.9 mph - N/A   Clear
7:53 AM 34.0 °F - 26.1 °F 73% 30.17 in 10.0 mi Calm Calm - N/A   Clear
8:53 AM 45.0 °F 39.7 °F 28.9 °F 53% 30.14 in 10.0 mi NNE 10.4 mph - N/A   Clear
9:53 AM 48.9 °F - 23.0 °F 36% 30.16 in 10.0 mi North 18.4 mph 29.9 mph N/A   Clear
10:53 AM 53.1 °F - 19.9 °F 27% 30.17 in 10.0 mi North 17.3 mph 26.5 mph N/A   Clear
11:53 AM 54.0 °F - 19.0 °F 25% 30.17 in 10.0 mi North 20.7 mph 31.1 mph N/A   Clear
12:53 PM 55.9 °F - 19.0 °F 24% 30.17 in 10.0 mi North 16.1 mph 25.3 mph N/A   Clear
2:53 PM 59.0 °F - 18.0 °F 20% 30.14 in 10.0 mi North 15.0 mph 26.5 mph N/A   Clear
3:53 PM 61.0 °F - 15.1 °F 17% 30.12 in 10.0 mi North 15.0 mph 25.3 mph N/A   Clear
4:53 PM 61.0 °F - 15.1 °F 17% 30.14 in 10.0 mi North 17.3 mph 32.2 mph N/A   Clear
5:53 PM 61.0 °F - 15.1 °F 17% 30.14 in 10.0 mi North 15.0 mph 23.0 mph N/A   Clear
6:53 PM 57.9 °F - 16.0 °F 19% 30.17 in 10.0 mi North 12.7 mph 20.7 mph N/A   Clear
7:53 PM 51.1 °F - 17.1 °F 26% 30.17 in 10.0 mi North 5.8 mph - N/A   Clear
8:53 PM 52.0 °F - 18.0 °F 26% 30.16 in 10.0 mi NNW 6.9 mph - N/A   Clear
9:53 PM 43.0 °F 39.5 °F 19.0 °F 38% 30.20 in 10.0 mi East 5.8 mph - N/A   Clear
10:53 PM 42.1 °F 36.1 °F 19.9 °F 41% 30.19 in 10.0 mi ENE 10.4 mph - N/A   Clear
11:53 PM 34.0 °F 31.0 °F 19.9 °F 56% 30.24 in 10.0 mi SSW 3.5 mph - N/A   Clear